[[[{"header":{"parameterUnit":"kt","parameterCategory":2,"dx":1,"dy":1,"la1":30.253999710083008,"la2":30.299108505249023,"lo1":-89.0895004272461,"lo2":-89.04439544677734,"nx":28,"ny":28,"refTime":"2022-09-26T21:00:00:Z","depth":0,"parameterNumber":1,"parameterNumberName":"U-component_of_WINDS"},"data":[-6.1471,-6.1676,-6.164,-6.1856,-6.186,-6.2001,-6.204,-6.2086,-6.2113,-6.2277,-6.2364,-6.2347,-6.2359,-6.2454,-6.2546,-6.2536,-6.2581,-6.2679,-6.2651,-6.2242,-6.2183,-6.2127,-6.2078,-6.2688,-6.2688,-6.3082,-6.3086,-6.3089,-6.1174,-6.118,-6.1284,-6.136,-6.1448,-6.1331,-6.1381,-6.1463,-6.1592,-6.1626,-6.171,-6.1851,-6.1957,-6.1934,-6.203,-6.2124,-6.2075,-6.2153,-6.2148,-6.2153,-6.1712,-6.166,-6.2191,-6.2191,-6.2191,-6.2191,-6.219,-6.219,-6.0624,-6.0748,-6.0772,-6.0884,-6.0911,-6.0962,-6.1074,-6.105,-6.115,-6.1246,-6.1181,-6.1327,-6.1354,-6.145,-6.1473,-6.1585,-6.1492,-6.1566,-6.1586,-6.1607,-6.1637,-6.1079,-6.1598,-6.1596,-6.1595,-6.1594,-6.1592,0,-6.0211,-6.0172,-6.0268,-6.0355,-6.0434,-6.0497,-6.0548,-6.0615,-6.0519,-6.0606,-6.0728,-6.0792,-6.0918,-6.103,-6.111,-6.1118,-6.1008,-6.099,-6.1042,-6.108,-6.1102,-6.1097,-6.0385,-6.0977,-6.0972,-6.0968,-6.0965,-6.0963,-5.9658,-5.9805,-5.9812,-5.9885,-5.9903,-6.0022,-6.0084,-5.9988,-6.0059,-6.0107,-6.0221,-6.0329,-6.0412,-6.0614,-6.0585,-6.0679,-6.0628,-6.0858,-6.0641,-6.0669,-6.0637,-6.0632,-6.0647,-6.0905,-6.0912,-6.0918,-6.0923,0,-5.935,-5.9289,-5.9505,-5.9496,-5.9498,-5.9658,-5.9651,-5.9769,-5.9732,-5.9891,-5.9922,-5.9866,-5.9988,-5.992,-6.0045,-6.0007,-6.027,-6.0214,-6.026,-6.0248,-6.0451,-6.0435,-6.1113,-6.1198,-6.0559,-6.0565,-6.057,0,-5.8856,-5.9053,-5.895,-5.9079,-5.9294,-5.9192,-5.9407,-5.9397,-5.9418,-5.9542,-5.9403,-5.9522,-5.9416,-5.9526,-5.9469,-5.9671,-5.9693,-5.9678,-5.9662,-5.9694,-5.9697,-5.9735,-5.9708,-5.9613,-5.9609,-5.9606,-5.9604,0,-5.8386,-5.856,-5.8767,-5.8797,-5.8808,-5.8908,-5.8918,-5.8939,-5.9002,-5.9072,-5.9111,-5.92,-5.925,-5.932,-5.9248,-5.9104,-5.9491,-5.9278,-5.9476,-5.9479,-5.9571,-5.9567,-6.0179,-5.9599,-5.9598,-5.9597,-5.9596,0,-5.7979,-5.8052,-5.8361,-5.8367,-5.8417,-5.8553,-5.8634,-5.8734,-5.8768,-5.8741,-5.8794,-5.8695,-5.8864,-5.8657,-5.8889,-5.8722,-5.8779,-5.8778,-5.8791,-5.8807,-5.858,-5.8941,-5.9526,-5.9587,-5.8815,-5.8808,-5.8802,0,-5.746,-5.7755,-5.7669,-5.7965,-5.8093,-5.7929,-5.8078,-5.8111,-5.8087,-5.8191,-5.8163,-5.8283,-5.8115,-5.8144,-5.8266,-5.8244,-5.846,-5.8212,-5.8368,-5.8375,-5.837,-5.8905,-5.9012,-5.9404,-5.8718,-5.8727,-5.8733,0,-5.7051,-5.7062,-5.7121,-5.7151,-5.7179,-5.7284,-5.7455,-5.755,-5.7625,-5.7676,-5.7819,-5.7983,-5.7864,-5.7913,-5.7841,-5.7973,-5.831,-5.7828,-5.7827,-5.7921,-5.8668,-5.8769,-5.8835,-5.8233,-5.8244,-5.8252,-5.8666,0,-5.6459,-5.6597,-5.6751,-5.6823,-5.6892,-5.7072,-5.7001,-5.7083,-5.7007,-5.6978,-5.7184,-5.7194,-5.7293,-5.7347,-5.7275,-5.7597,-5.7533,-5.7405,-5.7205,-5.7554,-5.769,-5.7745,-5.7009,-5.7002,-5.6997,-5.6992,0,0,-5.598,-5.6177,-5.6077,-5.6239,-5.6293,-5.6121,-5.6321,-5.6352,-5.6422,-5.6463,-5.6348,-5.6584,-5.6599,-5.6857,-5.696,-5.6999,-5.7051,-5.6932,-5.7387,-5.7432,-5.7472,-5.7618,-5.7676,-5.6983,-5.6981,-5.6979,-5.6977,0,-5.575,-5.5765,-5.5963,-5.5991,-5.6029,-5.5987,-5.6035,-5.6043,-5.6033,-5.6233,-5.6091,-5.6206,-5.6397,-5.6432,-5.6475,-5.6897,-5.6786,-5.6932,-5.7185,-5.7335,-5.7387,-5.7432,-5.7586,-5.7643,-5.6964,-5.6965,-5.6965,0,-5.5338,-5.5342,-5.5429,-5.554,-5.5564,-5.5698,-5.5468,-5.5619,-5.5718,-5.5525,-5.5727,-5.5724,-5.5763,-5.6016,-5.6126,-5.6026,-5.6548,-5.6369,-5.6401,-5.6414,-5.6556,-5.6618,-5.6673,-5.5948,-5.5945,-5.5942,0,0,-5.5149,-5.5276,-5.5252,-5.5486,-5.551,-5.5452,-5.5516,-5.5447,-5.5485,-5.5502,-5.5496,-5.5539,-5.5648,-5.5723,-5.5822,-5.6109,-5.6111,-5.6247,-5.6295,-5.6335,-5.6369,-5.6522,-5.6583,-5.593,-5.593,-5.5929,0,0,-5.5059,-5.504,-5.4957,-5.5219,-5.526,-5.5253,-5.5399,-5.5297,-5.5379,-5.535,-5.5242,-5.5249,-5.5483,-5.5486,-5.533,-5.575,-5.5552,-5.5588,-5.5741,-5.5801,-5.5848,-5.5844,-5.5099,0,0,0,0,0,-5.4788,-5.5041,-5.4966,-5.4999,-5.514,-5.5294,-5.5311,-5.5228,-5.5089,-5.5207,-5.5185,-5.506,-5.538,-5.5239,-5.5274,-5.5451,-5.5772,-5.58,-5.5826,-5.6091,-5.6154,-5.6207,0,0,0,0,0,0,-5.48,-5.4841,-5.4959,-5.4964,-5.4994,-5.5284,-5.5031,-5.5015,-5.5074,-5.5047,-5.5068,-5.506,-5.4992,-5.5215,-5.5248,-5.5418,-5.5087,-5.5783,-5.5807,-5.5828,-5.6112,-5.6164,-5.6208,0,0,0,0,0,-5.481,-5.4842,-5.509,-5.4959,-5.4986,-5.4935,-5.5021,-5.5005,-5.505,-5.5017,-5.5006,-5.4981,-5.4999,-5.5021,-5.5234,-5.5405,-5.5064,-5.5077,-5.5798,-5.5817,-5.5834,-5.6138,0,0,0,0,0,0,-5.4817,-5.483,-5.5093,-5.5098,-5.4857,-5.4917,-5.4923,-5.4998,-5.5014,-5.5006,-5.4924,-5.4903,-5.5008,-5.5023,-5.5041,-5.5406,-5.5045,-5.5058,-5.5066,-5.5813,-5.5827,-5.584,0,0,0,0,0,0,-5.4811,-5.4836,-5.5096,-5.4972,-5.4961,-5.4901,-5.4907,-5.5075,-5.5016,-5.4919,-5.4902,-5.4915,-5.4981,-5.5026,-5.5039,-5.5305,-5.503,-5.5043,-5.5051,-5.5057,-5.5825,-5.5836,0,0,0,0,0,0,-5.482,-5.484,-5.4969,-5.4962,-5.4952,-5.5002,-5.5048,-5.5197,-5.4909,-5.4922,-5.4881,-5.4868,-5.4988,-5.4999,-5.5038,-5.53,-5.5304,-5.5031,-5.5039,-5.5045,-5.5049,0,0,0,0,0,0,0,-5.4827,-5.471,-5.5064,-5.4954,-5.4945,-5.5144,-5.5146,-5.5147,-5.4907,-5.4895,-5.4884,-5.4874,-5.496,-5.4974,-5.4987,-5.5296,0,0,-5.5029,-5.5035,0,0,0,0,0,0,0,0,-5.4699,-5.4707,-5.5064,-5.5065,-5.5066,-5.5145,-5.5146,-5.5147,-5.4905,-5.4896,-5.4886,-5.4878,-5.4964,-5.4975,-5.4986,0,0,0,0,0,0,0,0,0,0,0,0,0,0,0,-5.5064,-5.5065,0,-5.5145,-5.5146,-5.5147,-5.4903,-5.4896,-5.4888,-5.4881,-5.4967,-5.4976,-5.4985,0,0,0,0,0,0,0,0,0,0,0,0,0,0,0,0,0,0,0,0,0,0,0,0,0,0,0,0,0,0,0,0,0,0,0,0,0,0,0,0,0,0,0,0,0,0,0,0,0,0,0,0,0,0,0,0,0,0,0,0,0,0,0,0,0,0,0,0,0]}],[{"header":{"parameterUnit":"kt","parameterCategory":2,"dx":1,"dy":1,"la1":30.253999710083008,"la2":30.299108505249023,"lo1":-89.0895004272461,"lo2":-89.04439544677734,"nx":28,"ny":28,"refTime":"2022-09-26T21:00:00:Z","depth":0,"parameterNumber":2,"parameterNumberName":"V-component_of_WINDS"},"data":[-12.5491,-12.57,-12.5681,-12.5909,-12.5929,-12.608,-12.6126,-12.6184,-12.6223,-12.6397,-12.6492,-12.6489,-12.6517,-12.6622,-12.672,-12.6716,-12.6759,-12.6848,-12.6826,-12.6451,-12.6398,-12.6346,-12.6296,-12.6858,-12.6859,-12.7218,-12.7221,-12.7224,-12.5216,-12.524,-12.5356,-12.5454,-12.5551,-12.5454,-12.5521,-12.5608,-12.5744,-12.5794,-12.5887,-12.6036,-12.615,-12.6146,-12.625,-12.6343,-12.63,-12.6372,-12.6364,-12.6369,-12.5968,-12.5915,-12.6405,-12.6404,-12.6404,-12.6404,-12.6404,-12.6404,-12.471,-12.4837,-12.4885,-12.5009,-12.5053,-12.5117,-12.5232,-12.5228,-12.5337,-12.5448,-12.5399,-12.555,-12.5593,-12.5706,-12.5738,-12.5852,-12.5767,-12.5838,-12.5855,-12.5873,-12.5897,-12.538,-12.5868,-12.5867,-12.5865,-12.5864,-12.5863,0,-12.4333,-12.4308,-12.4417,-12.4521,-12.461,-12.4687,-12.4754,-12.4824,-12.4758,-12.4851,-12.4982,-12.5054,-12.5193,-12.5311,-12.5403,-12.542,-12.5323,-12.5311,-12.5359,-12.5385,-12.5397,-12.5391,-12.4736,-12.5296,-12.5292,-12.5288,-12.5285,-12.5283,-12.3819,-12.397,-12.4009,-12.4089,-12.412,-12.4249,-12.432,-12.4251,-12.4329,-12.4397,-12.451,-12.4629,-12.472,-12.4931,-12.4918,-12.502,-12.4974,-12.519,-12.4988,-12.5007,-12.4975,-12.4967,-12.498,-12.523,-12.5237,-12.5243,-12.5247,0,-12.3531,-12.3497,-12.3723,-12.3746,-12.3756,-12.3916,-12.3932,-12.4054,-12.4034,-12.4198,-12.4232,-12.4201,-12.4329,-12.4281,-12.4417,-12.4387,-12.4643,-12.4596,-12.4628,-12.4615,-12.4803,-12.4785,-12.5423,-12.5502,-12.4921,-12.4927,-12.4931,0,-12.3078,-12.3278,-12.3215,-12.3348,-12.3566,-12.3491,-12.3708,-12.3713,-12.375,-12.3878,-12.3762,-12.3884,-12.3803,-12.3917,-12.3874,-12.4075,-12.41,-12.4089,-12.4075,-12.4099,-12.41,-12.4136,-12.4109,-12.4039,-12.4035,-12.4032,-12.403,0,-12.2631,-12.2831,-12.3047,-12.3086,-12.3129,-12.3231,-12.3253,-12.3294,-12.3364,-12.3446,-12.3489,-12.359,-12.3645,-12.3723,-12.3667,-12.3531,-12.3911,-12.3713,-12.3899,-12.3901,-12.3984,-12.398,-12.4558,-12.4026,-12.4025,-12.4024,-12.4023,0,-12.2259,-12.2349,-12.2667,-12.2699,-12.2754,-12.2896,-12.2991,-12.3101,-12.3152,-12.3134,-12.3198,-12.3114,-12.3287,-12.3093,-12.3329,-12.3169,-12.3228,-12.3233,-12.3245,-12.3256,-12.3042,-12.3373,-12.393,-12.3985,-12.3268,-12.3262,-12.3256,0,-12.1755,-12.2068,-12.2006,-12.231,-12.2447,-12.2308,-12.2462,-12.2512,-12.2501,-12.2613,-12.2599,-12.2727,-12.2573,-12.2606,-12.2729,-12.2719,-12.2928,-12.269,-12.2846,-12.2853,-12.2837,-12.3349,-12.3443,-12.3813,-12.3175,-12.3184,-12.319,0,-12.1359,-12.1413,-12.1472,-12.1512,-12.1568,-12.1682,-12.1861,-12.1972,-12.205,-12.2118,-12.2263,-12.2442,-12.2332,-12.2388,-12.2329,-12.246,-12.2784,-12.2324,-12.2324,-12.2408,-12.3131,-12.3219,-12.3282,-12.2715,-12.2725,-12.2733,-12.3125,0,-12.0803,-12.0955,-12.1112,-12.1209,-12.1289,-12.1477,-12.1429,-12.1519,-12.1455,-12.144,-12.1653,-12.168,-12.179,-12.1848,-12.1787,-12.2103,-12.2042,-12.1924,-12.1731,-12.2068,-12.2196,-12.2248,-12.1544,-12.1538,-12.1533,-12.1529,0,0,-12.0328,-12.0545,-12.0472,-12.0644,-12.0707,-12.056,-12.0764,-12.0808,-12.09,-12.0946,-12.0838,-12.1095,-12.1121,-12.1384,-12.1486,-12.1531,-12.1582,-12.1466,-12.1908,-12.1951,-12.199,-12.2128,-12.2183,-12.152,-12.1518,-12.1517,-12.1515,0,-12.0114,-12.0151,-12.0356,-12.0398,-12.0459,-12.0433,-12.0483,-12.0516,-12.0515,-12.0725,-12.0597,-12.0719,-12.0927,-12.097,-12.1019,-12.1434,-12.1329,-12.1471,-12.1711,-12.186,-12.1909,-12.1952,-12.2098,-12.2152,-12.1503,-12.1504,-12.1504,0,-11.9715,-11.9742,-11.9836,-11.9976,-12.0013,-12.0158,-11.9945,-12.0107,-12.0212,-12.0039,-12.0249,-12.0257,-12.0311,-12.0568,-12.0681,-12.0586,-12.1102,-12.093,-12.0961,-12.0972,-12.1113,-12.1172,-12.1225,-12.0529,-12.0526,-12.0523,0,0,-11.9537,-11.9678,-11.9683,-11.9926,-11.9959,-11.9923,-11.9995,-11.9939,-11.9993,-12.0016,-12.0023,-12.0078,-12.0196,-12.0277,-12.0386,-12.0676,-12.0679,-12.0813,-12.0859,-12.0896,-12.0928,-12.1079,-12.1138,-12.0511,-12.0511,-12.051,0,0,-11.945,-11.9467,-11.9394,-11.967,-11.9728,-11.9747,-11.9895,-11.9805,-11.9899,-11.9871,-11.9782,-11.9792,-12.0031,-12.0044,-11.9889,-12.0315,-12.0126,-12.0162,-12.0299,-12.0356,-12.0401,-12.0392,-11.9672,0,0,0,0,0,-11.9207,-11.9464,-11.9399,-11.9438,-11.9613,-11.9784,-11.9805,-11.9739,-11.9606,-11.9725,-11.9717,-11.96,-11.9941,-11.9803,-11.9841,-12.0014,-12.0356,-12.0384,-12.041,-12.0654,-12.0715,-12.0766,0,0,0,0,0,0,-11.9222,-11.927,-11.9391,-11.9423,-11.9461,-11.9774,-11.9534,-11.9523,-11.9591,-11.9566,-11.9606,-11.9601,-11.9546,-11.9778,-11.9814,-11.9979,-11.966,-12.0367,-12.039,-12.0411,-12.0675,-12.0724,-12.0767,0,0,0,0,0,-11.9233,-11.9272,-11.9571,-11.9418,-11.9452,-11.9425,-11.9524,-11.9512,-11.9564,-11.9552,-11.9544,-11.9508,-11.9553,-11.9578,-11.9799,-11.9965,-11.9634,-11.9648,-12.0382,-12.0401,-12.0417,-12.0699,0,0,0,0,0,0,-11.9242,-11.9262,-11.9576,-11.9583,-11.9316,-11.9406,-11.9418,-11.9504,-11.9543,-11.9539,-11.9448,-11.9428,-11.9561,-11.9578,-11.9599,-11.9964,-11.9614,-11.9628,-11.9636,-12.0396,-12.0411,-12.0423,0,0,0,0,0,0,-11.924,-11.9269,-11.9579,-11.9455,-11.9447,-11.9389,-11.94,-11.9577,-11.9545,-11.9436,-11.9421,-11.9439,-11.9529,-11.9581,-11.9595,-11.9876,-11.9598,-11.9611,-11.9621,-11.9626,-12.0408,-12.0419,0,0,0,0,0,0,-11.9251,-11.9276,-11.9452,-11.9447,-11.9439,-11.9519,-11.9544,-11.9726,-11.9442,-11.9437,-11.9414,-11.9402,-11.9534,-11.9548,-11.9594,-11.9869,-11.9874,-11.9599,-11.9608,-11.9614,-11.9618,0,0,0,0,0,0,0,-11.926,-11.911,-11.9532,-11.944,-11.9433,-11.9653,-11.9655,-11.9657,-11.9439,-11.9428,-11.9417,-11.9407,-11.9523,-11.9537,-11.9552,-11.9864,0,0,-11.9597,-11.9604,0,0,0,0,0,0,0,0,-11.9098,-11.9107,-11.9532,-11.9533,-11.9535,-11.9653,-11.9655,-11.9657,-11.9438,-11.9429,-11.942,-11.9411,-11.9527,-11.9538,-11.955,0,0,0,0,0,0,0,0,0,0,0,0,0,0,0,-11.9532,-11.9533,0,-11.9654,-11.9655,-11.9656,-11.9436,-11.9429,-11.9422,-11.9415,-11.953,-11.954,-11.9549,0,0,0,0,0,0,0,0,0,0,0,0,0,0,0,0,0,0,0,0,0,0,0,0,0,0,0,0,0,0,0,0,0,0,0,0,0,0,0,0,0,0,0,0,0,0,0,0,0,0,0,0,0,0,0,0,0,0,0,0,0,0,0,0,0,0,0,0,0]}]]]